LSZL

Details ICAO LSZL (ZJI)
Name Locarno
Region Switzerland
Timezone Europe/Zurich (UTC+1.0)
Plans Departing 201
Arriving 195
Stats Elevation 649 ft / 198 m (AMSL)
Location 46.161700° 8.878540°
Runways 3
Magnetic Variation 3.150° E
Sunrise 2024-03-04 05:59:11 UTC / 2024-03-04 06:59:11 Local
Sunset 2024-03-04 17:16:03 UTC / 2024-03-04 18:16:03 Local
Advertisement - Login to hide

Runways

ID Width Length Bearing (true/mag) Surface Threshold Overrun Markings Lighting
08C 98 ft / 30 m 2,284 ft / 696 m 79.42° / 76.27° GRASS 0 ft / 0 m 52 ft / 16 m NONE
08L 75 ft / 23 m 2,622 ft / 799 m 79.08° / 75.93° ASPHALT 417 ft / 127 m 0 ft / 0 m APP EDGE THRESHOLD
08R 98 ft / 30 m 1,997 ft / 609 m 79.64° / 76.49° GRASS 0 ft / 0 m 0 ft / 0 m NONE
26C 98 ft / 30 m 2,284 ft / 696 m 259.43° / 256.28° GRASS 0 ft / 0 m 0 ft / 0 m NONE
26L 98 ft / 30 m 1,997 ft / 609 m 259.64° / 256.49° GRASS 0 ft / 0 m 295 ft / 90 m NONE
26R 75 ft / 23 m 2,622 ft / 799 m 259.08° / 255.94° ASPHALT 164 ft / 50 m 0 ft / 0 m APP EDGE THRESHOLD

Map

Weather


0- 5 10 15 20 25 30 35+ Temperature / °C

Clouds and Precipitation
Forecast for 2024-03-04 06:00 UTC. Updated 5 hours ago

Ground ~20,000 ft ~40,000 ft Winds

METAR

LSZL 040750Z 00000KT 9999 BKN110 07/07 Q1007 RMK BLU

TAF

Not found

Frequencies

Tower 134.82 MHz
Recorded 133.45 MHz ATIS
Ground 121.70 MHz
Warning: Do not use this data for real-world aviation or navigation. No guarantee of current accuracy is given.